#timestamp,LO_Frequency,Hit,StdDev 
1516582815.6,286047000.1,N
1516582835.4,286047000.7,Y
1516582855.2,286047001.2,P
1516582875.1,286047000.5,N
1516582876.0,286047000.5,N
1516582895.8,286047001.0,N
1516582915.7,286047000.7,N
1516582935.5,286047001.2,N
1516582955.3,286047000.7,N
1516582975.2,286047000.0,N
1516582995.0,286047001.0,N
1516582995.9,286047001.0,N
1516583015.8,286047000.8,N
1516583035.6,286047002.4,Y
1516583055.4,286047000.7,P
1516583075.3,286046999.9,P
1516583095.1,286047001.1,N
1516583115.9,286047000.8,N
1516583135.7,286046999.7,N
1516583155.5,286046999.8,N
1516583175.4,286046999.7,N
1516583195.2,286047002.3,Y
1516583215.1,286047000.0,P
1516583246.0,286047000.3,E
1516583255.0,286047000.9,N
1516583255.9,286047000.9,P
1516583275.8,286047000.9,P
1516583295.6,286046998.5,Y
1516583315.4,286046998.4,P
1516583335.3,286047001.2,N
1516583355.1,286047000.2,N
1516583375.8,286047002.7,N
1516583395.7,286047000.0,N
1516583415.5,286047002.4,N
1516583435.4,286047002.7,N
1516583455.2,286047000.1,N
1516583475.0,286047000.5,N
1516583475.9,286047000.5,N
1516583495.8,286047000.6,N
1516583515.6,286047000.2,N
1516583535.5,286047001.2,N
1516583555.3,286046999.3,N
1516583575.1,286046998.7,N
1516583595.9,286046999.6,N
1516583615.7,286046996.7,N
1516583635.6,286046997.0,N
1516583655.4,286046996.6,N
1516583675.2,286046999.6,N
1516583695.1,286046996.7,N
1516583696.0,286046996.7,N
1516583715.8,286046997.6,N
1516583735.6,286046995.7,N
1516583755.5,286046997.9,N
1516583775.3,286046997.7,N
1516583795.2,286046996.6,N
1516583815.9,286046997.0,N
1516583835.7,286046996.9,N
1516583855.6,286046997.0,N
1516583875.4,286046999.5,N
1516583895.3,286046997.1,N
1516583915.1,286046998.3,N
1516583916.0,286046998.3,N
1516583935.8,286046999.0,N
1516583955.7,286046999.0,N
1516583975.5,286047001.1,N
1516583995.3,286046999.2,N
1516584015.2,286046999.0,N
1516584035.0,286046998.4,N
1516584035.9,286046998.4,N
1516584055.8,286046999.1,N
1516584075.6,286046997.0,N
1516584095.4,286046999.2,N
1516584115.3,286046998.9,N
1516584135.1,286046999.0,N
1516584155.9,286046999.1,N
1516584175.7,286046998.8,N
1516584195.5,286046998.3,N
1516584215.4,286047000.7,N
1516584235.2,286046998.1,N
1516584255.1,286047000.6,N
1516584256.0,286047000.6,N
1516584275.8,286047000.3,N
1516584295.6,286046998.6,N
1516584315.5,286046999.3,N
1516584335.3,286046999.0,N
1516584355.2,286047001.0,N
1516584375.9,286046999.8,N
1516584395.7,286047000.7,N
1516584415.6,286047000.2,N
1516584435.4,286047002.3,N
1516584455.2,286047002.3,N
1516584475.1,286046998.5,N
1516584476.0,286046998.5,N
1516584495.8,286046999.1,N
1516584515.7,286047000.9,N
1516584535.5,286046998.5,N
1516584555.3,286047000.7,N
1516584575.2,286046998.7,N
1516584595.0,286047000.8,N
1516584595.9,286047000.8,N
1516584615.8,286046999.2,N
1516584635.6,286046998.9,N
1516584655.4,286047001.0,N
1516584675.3,286047001.0,N
1516584695.1,286047000.5,N
1516584715.8,286047000.9,N
1516584735.7,286047000.7,N
1516584755.5,286047002.4,N
1516584775.4,286047002.5,N
1516584795.2,286047001.2,N
1516584815.0,286046998.7,N
1516584815.9,286046998.7,N
1516584835.8,286047001.1,N
1516584855.6,286046998.5,N
1516584875.5,286046999.7,N
1516584895.3,286046998.8,N
1516584915.1,286046998.7,N
1516584935.9,286046998.8,N
1516584955.7,286046998.1,N
1516584975.5,286046998.4,N
1516584995.4,286046999.3,N
1516585015.2,286046998.2,N
1516585035.1,286046999.0,N
1516585036.0,286046999.0,N
1516585055.8,286046998.5,N
1516585075.6,286046999.3,N
1516585095.5,286046999.4,N
1516585115.3,286046995.2,Y
1516585135.1,286046999.5,P
1516585155.9,286046998.0,P
1516585175.7,286046996.9,P
1516585195.6,286046997.2,N
1516585215.4,286046996.6,N
1516585235.2,286046997.4,N
1516585255.1,286046999.2,N
1516585256.0,286046999.2,N
1516585275.8,286046995.1,Y
1516585295.7,286046996.5,P
1516585315.5,286046997.4,P
1516585335.3,286046997.5,P
1516585355.2,286046997.8,Y
1516585375.0,286046999.0,P
1516585375.9,286046999.0,N
1516585395.7,286047000.8,N
1516585415.6,286047001.1,N
1516585435.4,286046999.6,N
1516585455.3,286046996.5,N
1516585475.1,286047000.8,N
1516585495.8,286046998.3,N
1516585515.7,286046998.2,N
1516585535.5,286047000.7,N
1516585555.4,286047000.5,N
1516585575.2,286047000.3,N
1516585595.0,286047002.6,N
1516585595.9,286047002.6,N
1516585615.8,286047000.5,N
1516585635.6,286046997.2,N
1516585655.5,286046997.2,N
1516585675.3,286046997.3,N
1516585695.1,286046995.0,N
1516585715.9,286046996.2,N
1516585735.7,286046995.8,N
1516585755.5,286046997.3,N
1516585775.4,286046996.8,N
1516585795.2,286046997.0,N
1516585815.1,286046997.0,N
1516585816.0,286046997.0,N
1516585835.8,286046996.8,N
1516585855.6,286046994.0,N
1516585875.5,286046995.3,N
1516585895.3,286046996.2,N
1516585915.1,286046997.6,N
1516585935.9,286046997.8,N
1516585955.7,286046995.0,N
1516585975.6,286046996.5,N
1516585995.4,286046997.6,N
1516586015.2,286046997.2,N
1516586035.1,286046997.6,N
1516586036.0,286046997.6,N
1516586055.8,286046995.2,N
1516586075.7,286046995.0,N
1516586095.5,286046995.7,N
1516586115.3,286046996.0,N
1516586135.2,286046995.3,N
1516586155.0,286046996.5,N
1516586155.9,286046996.5,N
1516586175.7,286046999.6,N
1516586195.6,286046996.9,N
1516586215.4,286046996.9,N
1516586235.3,286046995.0,Y
1516586255.1,286046998.2,P
1516586286.0,286047001.2,E
1516586295.1,286046998.3,N
1516586296.0,286046998.3,P
1516586315.8,286046996.7,P
1516586335.6,286046997.3,Y
1516586355.5,286046996.7,P
1516586375.3,286046998.8,N
1516586395.1,286046999.9,N
